カタログに戻る

STARLINK-34288

運用中通信VLEO
NORAD 64673·PAYLOAD·🇺🇸 United States

打ち上げ Jun 28, 2025 から Cape Canaveral Space Force Station

Loading…

次のパス (今後24時間)

TLE

最新Source: CelesTrak SupGP

元期: Sep 15, 2026, 03:36 UTC

1 64673C 25139K   26258.15048611  .00048348  00000+0  14283-2 0  2589
2 64673  53.1588 322.7083 0001256  91.7640 213.9883 15.34369328    13

AllMySatでSTARLINK-34288をリアルタイム追跡

Download on the App Store